SP6DW-13 Weather Reports


time (UTC)temp
C
wind
direction
speed
KPH
gust
KPH
rain 1hr
cm
rain 24hr
cm
rain mn
cm
humidity
%
barometer
mb
20260507204022 7 73 1.6 3.2 0.03 1.68 1.68 97 1018.0
20260507203021 7 70 3.2 9.7 0.03 1.68 1.68 97 1017.8
20260507202032 8 68 1.6 4.8 0.00 1.65 1.65 97 1017.7
20260507201027 8 75 1.6 4.8 0.00 1.65 1.65 97 1017.6
20260507200022 8 72 1.6 4.8 0.00 1.65 1.65 97 1017.6
20260507195017 8 75 0.0 3.2 0.00 1.65 1.65 97 1017.5
20260507194025 8 74 0.0 3.2 0.00 1.65 1.65 97 1017.3
20260507193055 8 74 1.6 4.8 0.00 1.65 1.65 97 1017.2
20260507192016 8 67 1.6 9.7 0.00 1.65 1.65 97 1017.2
20260507191103 8 72 1.6 6.4 0.00 1.65 1.65 97 1017.0
20260507190016 8 72 1.6 4.8 0.00 1.65 1.65 97 1016.9
20260507185016 8 80 1.6 11.3 0.00 1.65 1.65 97 1016.8
20260507184016 8 69 1.6 4.8 0.00 1.65 1.65 96 1016.6
20260507183037 8 78 1.6 4.8 0.00 1.65 1.65 96 1016.5
20260507182038 8 75 1.6 4.8 0.00 1.65 1.65 96 1016.5
20260507181016 8 84 1.6 3.2 0.00 1.65 1.65 96 1016.3
20260507180015 8 70 0.0 4.8 0.00 1.65 1.65 96 1016.3
20260507175016 8 72 1.6 4.8 0.00 1.65 1.65 96 1016.1
20260507174016 8 64 1.6 4.8 0.03 1.65 1.65 96 1016.2
20260507173015 8 67 1.6 4.8 0.03 1.65 1.65 96 1016.0
20260507172026 8 67 1.6 4.8 0.03 1.65 1.65 96 1015.9
20260507171016 9 73 1.6 3.2 0.03 1.65 1.65 96 1015.8
20260507170017 9 86 0.0 3.2 0.03 1.65 1.65 95 1015.9
20260507165016 9 75 1.6 4.8 0.03 1.65 1.65 95 1015.7
20260507164018 9 70 0.0 3.2 0.00 1.63 1.63 95 1015.6
20260507163032 9 95 0.0 3.2 0.00 1.63 1.63 95 1015.6
20260507162016 9 57 1.6 6.4 0.00 1.63 1.63 95 1015.4
20260507161015 9 90 1.6 4.8 0.00 1.63 1.63 95 1015.4
20260507160015 9 86 1.6 4.8 0.00 1.63 1.63 95 1015.5
20260507155015 9 82 1.6 4.8 0.00 1.63 1.63 95 1015.3
20260507154018 9 77 1.6 6.4 0.00 1.63 1.63 95 1015.3
20260507153018 9 64 3.2 9.7 0.00 1.63 1.63 95 1015.4
20260507152041 9 74 1.6 6.4 0.00 1.63 1.63 94 1015.2
20260507151047 10 80 1.6 4.8 0.00 1.63 1.63 94 1015.1
20260507150016 10 83 1.6 4.8 0.00 1.63 1.63 94 1015.0
20260507145025 10 83 1.6 4.8 0.00 1.63 1.63 93 1014.9
20260507144103 10 82 1.6 4.8 0.00 1.63 1.63 94 1014.9
20260507143016 10 79 1.6 4.8 0.00 1.63 1.63 94 1015.0
20260507142041 10 76 1.6 4.8 0.03 1.63 1.63 94 1014.9
20260507141036 10 78 1.6 4.8 0.05 1.63 1.63 94 1014.8
20260507140021 10 81 1.6 4.8 0.05 1.63 1.63 94 1014.7
20260507135035 10 97 1.6 4.8 0.05 1.63 1.63 94 1014.8
20260507134036 10 146 1.6 4.8 0.05 1.63 1.63 95 1014.7
20260507133027 10 103 1.6 4.8 0.08 1.63 1.63 95 1014.7
20260507132016 10 83 1.6 3.2 0.13 1.60 1.60 95 1014.7
20260507131016 10 71 1.6 4.8 0.15 1.57 1.57 95 1014.6
20260507130025 10 83 0.0 3.2 0.15 1.57 1.57 95 1014.5
20260507125015 10 69 1.6 4.8 0.15 1.57 1.57 95 1014.4
20260507124016 10 113 0.0 4.8 0.15 1.57 1.57 95 1014.3
20260507123025 10 64 1.6 4.8 0.13 1.55 1.55 94 1014.3
20260507122016 10 70 1.6 4.8 0.05 1.47 1.47 94 1014.2
20260507121015 10 81 3.2 6.4 0.00 1.42 1.42 92 1014.1
20260507120058 10 66 1.6 9.7 0.00 1.42 1.42 92 1014.0
20260507115016 10 60 1.6 4.8 0.00 1.42 1.42 91 1013.8
20260507114016 11 75 1.6 4.8 0.00 1.42 1.42 90 1013.9
20260507113016 11 66 1.6 6.4 0.00 1.42 1.42 91 1013.8
20260507112016 11 68 1.6 4.8 0.00 1.42 1.42 92 1013.8
20260507111036 10 60 1.6 4.8 0.00 1.42 1.42 92 1013.7
20260507110027 10 105 1.6 6.4 0.00 1.42 1.42 92 1013.7
20260507105016 10 75 1.6 4.8 0.00 1.42 1.42 92 1013.6
20260507104016 11 75 1.6 4.8 0.00 1.42 1.42 91 1013.6
20260507103040 11 85 1.6 6.4 0.00 1.42 1.42 91 1013.5
20260507102020 10 90 1.6 4.8 0.00 1.42 1.42 91 1013.5
20260507101025 10 76 1.6 4.8 0.00 1.42 1.42 92 1013.5
20260507100016 10 85 0.0 3.2 0.00 1.42 1.42 93 1013.5
20260507095023 10 78 0.0 3.2 0.00 1.42 1.42 93 1013.3
20260507094016 10 103 0.0 3.2 0.00 1.42 1.42 93 1013.2
20260507093016 10 81 0.0 4.8 0.00 1.42 1.42 94 1013.3
20260507092016 10 74 0.0 3.2 0.05 1.42 1.42 94 1013.1
20260507091016 10 74 1.6 3.2 0.15 1.42 1.42 94 1013.0
20260507090015 10 91 0.0 1.6 0.15 1.42 1.42 94 1012.8
20260507085037 10 63 0.0 4.8 0.15 1.42 1.42 95 1012.6
20260507084016 10 83 0.0 1.6 0.15 1.42 1.42 95 1012.5
20260507083027 10 81 0.0 3.2 0.15 1.42 1.42 95 1012.5
20260507082023 10 79 1.6 4.8 0.10 1.37 1.37 94 1012.4
20260507081016 10 75 0.0 3.2 0.00 1.27 1.27 93 1012.3
20260507080015 10 79 1.6 4.8 0.00 1.27 1.27 93 1012.0
20260507075027 10 72 0.0 3.2 0.00 1.27 1.27 92 1011.9
20260507074035 10 76 0.0 3.2 0.00 1.27 1.27 93 1011.8
20260507073016 10 75 1.6 4.8 0.00 1.27 1.27 93 1011.7
20260507072017 10 80 1.6 4.8 0.00 1.27 1.27 94 1011.7
20260507071022 10 56 3.2 4.8 0.00 1.27 1.27 93 1011.7
20260507070016 10 68 1.6 4.8 0.00 1.27 1.27 93 1011.6
20260507065016 10 87 0.0 3.2 0.00 1.27 1.27 94 1011.5
20260507064016 10 75 0.0 1.6 0.00 1.27 1.27 94 1011.3
20260507063015 10 78 1.6 3.2 0.00 1.27 1.27 95 1011.3
20260507062015 10 74 1.6 4.8 0.00 1.27 1.27 95 1011.2
20260507061016 10 73 0.0 3.2 0.00 1.27 1.27 95 1011.1
20260507060016 10 75 0.0 3.2 0.03 1.27 1.27 95 1011.1
20260507055106 10 73 0.0 1.6 0.03 1.27 1.27 95 1011.1
20260507054030 10 75 0.0 1.6 0.03 1.27 1.27 94 1010.9
20260507053040 10 100 0.0 1.6 0.03 1.27 1.27 94 1010.9
20260507052036 10 121 0.0 3.2 0.05 1.27 1.27 94 1010.7
20260507051036 10 105 0.0 1.6 0.13 1.27 1.27 94 1010.6
20260507050016 10 119 0.0 1.6 0.20 1.24 1.24 95 1010.5
20260507045015 10 109 0.0 1.6 0.28 1.24 1.24 95 1010.5
20260507044021 10 80 0.0 3.2 0.30 1.24 1.24 95 1010.4
20260507043042 9 107 0.0 1.6 0.30 1.24 1.24 95 1010.3
20260507042055 10 82 0.0 1.6 0.30 1.22 1.22 95 1010.3
20260507041047 10 84 0.0 1.6 0.23 1.14 1.14 95 1010.1
20260507040015 10 116 0.0 3.2 0.13 1.04 1.04 95 1010.1
20260507035018 10 72 0.0 3.2 0.05 0.97 0.97 95 1010.1
20260507034015 10 70 0.0 1.6 0.03 0.94 0.94 95 1010.2
20260507033015 10 79 1.6 4.8 0.03 0.94 0.94 94 1010.0
20260507032016 10 91 0.0 3.2 0.00 0.91 0.91 94 1009.9
20260507031036 10 114 0.0 3.2 0.00 0.91 0.91 94 1009.7
20260507030016 10 79 0.0 3.2 0.00 0.91 0.91 94 1009.7
20260507025016 10 69 1.6 3.2 0.03 0.91 0.91 94 1009.7
20260507024016 11 102 0.0 1.6 0.03 0.91 0.91 95 1009.8
20260507023025 11 76 0.0 3.2 0.05 0.91 0.91 95 1009.7
20260507022021 11 61 1.6 4.8 0.08 0.91 0.91 95 1009.7
20260507021016 11 57 1.6 3.2 0.13 0.91 0.91 95 1009.4
20260507020028 11 71 1.6 3.2 0.20 0.91 0.91 95 1009.4
20260507015016 11 59 1.6 3.2 0.33 0.89 0.89 95 1009.3
20260507014016 11 0.0 0.0 0.38 0.89 0.89 95 1009.3
20260507013048 11 80 0.0 1.6 0.51 0.86 0.86 95 1009.1
20260507012031 11 111 0.0 1.6 0.61 0.84 0.84 95 1008.9
20260507011021 12 110 0.0 1.6 0.71 0.79 0.79 94 1008.9
20260507010015 12 107 0.0 1.6 0.64 0.71 0.71 94 1008.9
20260507005028 12 0.0 0.0 0.48 0.56 0.56 94 1008.8
20260507004016 12 0.0 0.0 0.43 0.53 0.51 94 1008.7
20260507003015 12 86 0.0 1.6 0.30 0.38 0.36 94 1008.5
20260507002025 12 73 0.0 3.2 0.18 0.28 0.23 94 1008.5
20260507001016 12 78 0.0 1.6 0.03 0.15 0.08 93 1008.4
20260507000027 12 63 1.6 3.2 0.05 0.23 0.08 92 1008.3
20260506235016 12 0.0 0.0 0.05 0.33 0.08 92 1008.3
20260506234021 12 0.0 0.0 0.08 0.41 0.08 91 1008.2
20260506233019 12 105 0.0 1.6 0.05 0.43 0.05 91 1008.2
20260506232016 13 111 0.0 1.6 0.05 0.43 0.05 91 1008.0
20260506231033 13 112 0.0 1.6 0.05 0.46 0.05 89 1008.0
20260506230015 13 132 0.0 3.2 0.03 0.43 0.03 88 1008.1
20260506225028 13 108 0.0 1.6 0.03 0.43 0.03 87 1008.4
20260506224016 13 111 0.0 1.6 0.00 0.43 0.00 87 1008.5
20260506223015 13 79 0.0 1.6 0.00 0.46 0.00 85 1008.4
20260506222026 13 116 0.0 3.2 0.00 0.56 0.00 85 1008.3
20260506221015 13 77 0.0 3.2 0.00 0.56 0.00 84 1008.1
20260506220015 13 76 0.0 3.2 0.00 0.56 0.00 84 1008.0
20260506215015 13 78 0.0 1.6 0.00 0.56 0.56 85 1007.9
20260506214036 13 77 1.6 6.4 0.00 0.56 0.56 84 1007.7
20260506213056 13 114 0.0 3.2 0.00 0.56 0.56 84 1007.7
20260506212015 13 113 1.6 4.8 0.00 0.56 0.56 84 1007.5
20260506211015 13 121 1.6 4.8 0.00 0.56 0.56 84 1007.4
20260506210016 13 139 3.2 6.4 0.00 0.56 0.56 85 1007.6
20260506205016 14 139 1.6 6.4 0.00 0.56 0.56 87 1007.8